[[{"header":{"parameterUnit":"m.s-1","parameterCategory":1,"la1":30.2991,"la2":30.254,"lo1":-89.0895,"lo2":-89.0444,"dy":0.0017,"dx":0.0017,"nx":28,"ny":28,"refTime":"2024-04-25T03:00:00:Z","depth":0,"parameterNumber":2,"parameterNumberName":"U-component_of_WINDS"},"data":[0,0,0,0,0,0,0,0,0,0,0,0,0,0,0,0,0,0,0,0,0,0,0,0,0,0,0,0,0,0,0,0,0,0,0,0,0,0,0,0,0,0,0,0,0,0,0,0,0,0,0,0,0,0,0,0,0,0,-5.6737,-5.6739,0,-5.689,-5.6892,-5.6893,-5.6888,-5.6886,-5.6884,-5.6882,-5.7036,-5.7042,-5.7048,0,0,0,0,0,0,0,0,0,0,0,0,0,-5.6438,-5.6443,-5.6737,-5.6739,-5.6741,-5.689,-5.6892,-5.6894,-5.6889,-5.6886,-5.6883,-5.6881,-5.7034,-5.7041,-5.7048,0,0,0,0,0,0,0,0,0,0,0,0,0,-5.6577,-5.6445,-5.6736,-5.6756,-5.6759,-5.6889,-5.6892,-5.6894,-5.6889,-5.6886,-5.6883,-5.688,-5.7031,-5.704,-5.7049,-5.7169,0,0,-5.7077,-5.7081,0,0,0,0,0,0,0,0,-5.6569,-5.6588,-5.6751,-5.6755,-5.6759,-5.6867,-5.6843,-5.6986,-5.689,-5.684,-5.6882,-5.6878,-5.6982,-5.6995,-5.7031,-5.7176,-5.7183,-5.7078,-5.7083,-5.7087,-5.709,0,0,0,0,0,0,0,-5.6559,-5.6581,-5.6797,-5.6754,-5.6758,-5.6756,-5.6773,-5.687,-5.6927,-5.6844,-5.6844,-5.6862,-5.6983,-5.7022,-5.7034,-5.7185,-5.7078,-5.7086,-5.7091,-5.7095,-5.7436,-5.744,0,0,0,0,0,0,-5.6546,-5.6573,-5.6792,-5.6802,-5.6654,-5.6764,-5.6783,-5.6835,-5.6926,-5.6936,-5.6865,-5.6861,-5.7008,-5.7023,-5.7039,-5.7185,-5.7087,-5.7096,-5.7101,-5.7433,-5.7437,-5.7441,0,0,0,0,0,0,-5.6539,-5.6565,-5.6786,-5.6688,-5.6716,-5.6773,-5.6832,-5.684,-5.6878,-5.6942,-5.6951,-5.6894,-5.7006,-5.7027,-5.7137,-5.719,-5.71,-5.7108,-5.7429,-5.7434,-5.7439,-5.7476,0,0,0,0,0,0,-5.6531,-5.6563,-5.661,-5.6689,-5.6721,-5.6882,-5.6836,-5.6845,-5.6894,-5.6891,-5.6971,-5.6981,-5.7005,-5.7123,-5.7146,-5.7201,-5.7115,-5.7424,-5.7431,-5.7437,-5.7471,-5.7482,-5.7492,0,0,0,0,0,-5.652,-5.6614,-5.6612,-5.6638,-5.678,-5.6885,-5.6903,-5.6929,-5.6899,-5.6945,-5.6986,-5.6979,-5.7181,-5.7135,-5.716,-5.7218,-5.7421,-5.7429,-5.7437,-5.7466,-5.748,-5.7492,0,0,0,0,0,0,-5.6538,-5.6624,-5.6623,-5.6745,-5.6808,-5.6884,-5.6943,-5.6944,-5.7016,-5.701,-5.7039,-5.7057,-5.7167,-5.7204,-5.7151,-5.7339,-5.7297,-5.731,-5.731,-5.7324,-5.7335,-5.7322,-5.7123,0,0,0,0,0,-5.6556,-5.6635,-5.6706,-5.6806,-5.6838,-5.6886,-5.6932,-5.6947,-5.7013,-5.7039,-5.7087,-5.7151,-5.7228,-5.7279,-5.7354,-5.7477,-5.7493,-5.753,-5.7541,-5.7549,-5.756,-5.7627,-5.7643,-5.7468,-5.7468,-5.7467,0,0,-5.6594,-5.6651,-5.6699,-5.6811,-5.6862,-5.6941,-5.6908,-5.6993,-5.7052,-5.7051,-5.7158,-5.7197,-5.7269,-5.7386,-5.744,-5.742,-5.7612,-5.756,-5.7566,-5.7572,-5.7637,-5.7653,-5.7668,-5.7473,-5.7472,-5.7471,0,0,-5.6704,-5.6756,-5.6845,-5.6896,-5.6973,-5.7004,-5.7026,-5.7103,-5.7128,-5.7236,-5.7237,-5.7308,-5.7441,-5.7493,-5.7536,-5.7667,-5.7662,-5.7691,-5.7747,-5.7812,-5.7825,-5.7838,-5.7882,-5.7898,-5.7702,-5.7702,-5.7702,0,-5.6741,-5.6862,-5.689,-5.6977,-5.7026,-5.703,-5.712,-5.7168,-5.7266,-5.7299,-5.7277,-5.7445,-5.7494,-5.7622,-5.7654,-5.769,-5.7714,-5.768,-5.7821,-5.7834,-5.7846,-5.7889,-5.7906,-5.7705,-5.7704,-5.7704,-5.7704,0,-5.6903,-5.6987,-5.7049,-5.7144,-5.7201,-5.7288,-5.7329,-5.7383,-5.7394,-5.7427,-5.7537,-5.7597,-5.7684,-5.7716,-5.7727,-5.7846,-5.7831,-5.7815,-5.7773,-5.7865,-5.7906,-5.7922,-5.7709,-5.7708,-5.7707,-5.7706,0,0,-5.7025,-5.7136,-5.7158,-5.7201,-5.7287,-5.7352,-5.744,-5.7526,-5.7571,-5.7639,-5.7712,-5.7826,-5.7811,-5.7861,-5.7878,-5.7935,-5.8033,-5.7912,-5.7914,-5.793,-5.8166,-5.8176,-5.8195,-5.8032,-5.8035,-5.8038,-5.8159,0,-5.7142,-5.7299,-5.7327,-5.7463,-5.7541,-5.7547,-5.7623,-5.7684,-5.7718,-5.7788,-5.7826,-5.7905,-5.7881,-5.7911,-5.7968,-5.8009,-5.808,-5.8001,-5.8098,-5.8102,-5.8077,-5.8217,-5.8227,-5.8339,-5.8176,-5.8178,-5.8181,0,-5.7299,-5.7371,-5.7515,-5.7591,-5.7624,-5.7692,-5.7773,-5.7841,-5.791,-5.793,-5.7987,-5.7998,-5.8088,-5.8044,-5.8169,-5.8114,-5.8156,-5.8183,-5.8188,-5.8196,-5.8144,-5.8226,-5.8376,-5.8391,-5.8206,-5.8204,-5.8202,0,-5.7371,-5.7505,-5.7608,-5.7645,-5.7736,-5.7784,-5.7824,-5.789,-5.794,-5.8011,-5.8043,-5.8124,-5.8167,-5.8229,-5.8261,-5.8227,-5.8383,-5.8342,-5.8401,-5.8401,-5.8432,-5.8429,-5.8588,-5.8463,-5.8463,-5.8463,-5.8462,0,-5.7497,-5.7585,-5.7641,-5.7705,-5.7802,-5.7835,-5.7931,-5.797,-5.8029,-5.8099,-5.811,-5.8176,-5.8215,-5.8287,-5.8313,-5.8411,-5.8431,-5.8449,-5.8455,-5.8447,-5.8444,-5.8473,-5.8465,-5.8467,-5.8466,-5.8465,-5.8465,0,-5.7594,-5.7636,-5.7748,-5.7826,-5.7847,-5.7916,-5.7982,-5.8043,-5.8078,-5.8167,-5.819,-5.8244,-5.8328,-5.8367,-5.8472,-5.8489,-5.86,-5.8602,-5.8577,-5.8578,-5.8635,-5.8628,-5.8816,-5.8841,-5.8702,-5.8703,-5.8704,0,-5.767,-5.7737,-5.7823,-5.7871,-5.7912,-5.799,-5.8041,-5.8077,-5.8129,-5.8213,-5.8264,-5.8349,-5.8419,-5.8553,-5.8602,-5.8681,-5.8683,-5.8744,-5.8695,-5.8685,-5.8681,-5.8676,-5.8682,-5.8751,-5.8753,-5.8754,-5.8755,0,-5.7801,-5.7818,-5.7892,-5.7973,-5.8034,-5.81,-5.8164,-5.8203,-5.8248,-5.8307,-5.8394,-5.8448,-5.8555,-5.8639,-5.8722,-5.8763,-5.8766,-5.877,-5.8788,-5.8779,-5.8761,-5.877,-5.8598,-5.8765,-5.8764,-5.8763,-5.8762,-5.8762,-5.7888,-5.7948,-5.8017,-5.8099,-5.8151,-5.8211,-5.8272,-5.8315,-5.8389,-5.8479,-5.8495,-5.8587,-5.8655,-5.8767,-5.8811,-5.8883,-5.8868,-5.8894,-5.89,-5.8906,-5.8908,-5.8752,-5.8898,-5.8898,-5.8898,-5.8898,-5.8897,0,-5.8017,-5.8063,-5.8138,-5.8228,-5.8292,-5.8291,-5.8363,-5.8416,-5.8497,-5.856,-5.8629,-5.8728,-5.881,-5.8865,-5.8948,-5.8995,-5.8998,-5.9015,-5.9011,-5.902,-5.8917,-5.8892,-5.9011,-5.9011,-5.9011,-5.9011,-5.9011,-5.9011,-5.8092,-5.8193,-5.8219,-5.8345,-5.839,-5.8481,-5.8521,-5.8577,-5.8627,-5.8738,-5.8806,-5.8842,-5.8902,-5.8989,-5.9064,-5.9078,-5.9107,-5.9124,-5.9137,-5.9039,-5.9027,-5.9016,-5.8993,-5.913,-5.913,-5.9234,-5.9234,-5.9235]},{"header":{"parameterUnit":"m.s-1","parameterCategory":1,"la1":30.2991,"la2":30.254,"lo1":-89.0895,"lo2":-89.0444,"dy":0.0017,"dx":0.0017,"nx":28,"ny":28,"refTime":"2024-04-25T03:00:00:Z","depth":0,"parameterNumber":3,"parameterNumberName":"V-component_of_WINDS"},"data":[0,0,0,0,0,0,0,0,0,0,0,0,0,0,0,0,0,0,0,0,0,0,0,0,0,0,0,0,0,0,0,0,0,0,0,0,0,0,0,0,0,0,0,0,0,0,0,0,0,0,0,0,0,0,0,0,0,0,4.4304,4.4306,0,4.4422,4.4424,4.4425,4.4457,4.4456,4.4455,4.4455,4.4569,4.4573,4.4577,0,0,0,0,0,0,0,0,0,0,0,0,0,4.4103,4.4107,4.4304,4.4306,4.4307,4.4422,4.4424,4.4425,4.4457,4.4456,4.4455,4.4454,4.4568,4.4573,4.4577,0,0,0,0,0,0,0,0,0,0,0,0,0,4.4202,4.4108,4.4304,4.4337,4.4341,4.4422,4.4424,4.4426,4.4457,4.4456,4.4455,4.4454,4.4567,4.4572,4.4578,4.4632,0,0,4.4595,4.4597,0,0,0,0,0,0,0,0,4.4197,4.421,4.4331,4.4335,4.434,4.4424,4.4395,4.4495,4.4457,4.4413,4.4455,4.4453,4.4521,4.4531,4.4555,4.4638,4.4643,4.4595,4.4598,4.4601,4.4602,0,0,0,0,0,0,0,4.419,4.4205,4.4351,4.4332,4.4338,4.4345,4.4358,4.4414,4.4471,4.4416,4.4419,4.4433,4.4524,4.4549,4.4558,4.4644,4.4595,4.46,4.4603,4.4605,4.478,4.4781,0,0,0,0,0,0,4.4178,4.4199,4.4347,4.4354,4.4264,4.4349,4.4364,4.4398,4.4471,4.4481,4.4434,4.4434,4.454,4.4551,4.4562,4.4632,4.4601,4.4606,4.4609,4.4779,4.478,4.4782,0,0,0,0,0,0,4.4173,4.4191,4.4342,4.4278,4.4297,4.4354,4.4392,4.44,4.4426,4.4484,4.4494,4.445,4.454,4.4554,4.4615,4.4636,4.4608,4.4613,4.4777,4.4779,4.4781,4.4772,0,0,0,0,0,0,4.4168,4.4189,4.4211,4.4278,4.4301,4.4395,4.4393,4.4404,4.4437,4.4438,4.4501,4.4511,4.454,4.4607,4.4621,4.4643,4.4618,4.4776,4.4778,4.478,4.477,4.4773,4.4775,0,0,0,0,0,4.416,4.4202,4.4212,4.4229,4.4329,4.4396,4.4409,4.4444,4.4438,4.446,4.4498,4.4509,4.4632,4.4613,4.4629,4.4653,4.4774,4.4777,4.478,4.4769,4.4772,4.4775,0,0,0,0,0,0,4.4133,4.4211,4.4223,4.4288,4.4335,4.4401,4.443,4.4446,4.4494,4.4493,4.4533,4.4547,4.4606,4.4636,4.4613,4.4711,4.4703,4.471,4.4689,4.4693,4.4695,4.4686,4.4622,0,0,0,0,0,4.4135,4.4184,4.4249,4.4299,4.4323,4.4373,4.4403,4.4426,4.4476,4.4495,4.4537,4.4584,4.4634,4.4665,4.4714,4.4775,4.479,4.48,4.4803,4.4804,4.4809,4.4845,4.4851,4.4792,4.4792,4.4791,0,0,4.4138,4.4187,4.4215,4.4295,4.4335,4.4384,4.4389,4.444,4.4476,4.4502,4.4564,4.4596,4.4651,4.4714,4.4743,4.474,4.4829,4.4808,4.4809,4.4813,4.4849,4.4855,4.486,4.4794,4.4793,4.4793,0,0,4.417,4.4212,4.426,4.43,4.4362,4.4395,4.4406,4.4471,4.4494,4.4557,4.4578,4.4622,4.4706,4.4745,4.4775,4.4826,4.4838,4.484,4.4853,4.4888,4.4893,4.4897,4.4915,4.4921,4.4845,4.4845,4.4845,0,4.4166,4.4242,4.4282,4.4333,4.4368,4.4397,4.4446,4.4482,4.4555,4.4578,4.4575,4.4683,4.4722,4.4795,4.4807,4.4831,4.4845,4.4833,4.4889,4.4894,4.4899,4.4916,4.4923,4.4845,4.4845,4.4845,4.4845,0,4.4235,4.4288,4.4319,4.4392,4.443,4.4479,4.4526,4.456,4.4581,4.4614,4.4678,4.4726,4.4786,4.4805,4.4824,4.4881,4.4878,4.4882,4.4874,4.4903,4.4921,4.4928,4.4845,4.4845,4.4845,4.4845,0,0,4.425,4.4347,4.4358,4.4392,4.4463,4.4504,4.4555,4.4616,4.4645,4.4695,4.4739,4.4811,4.4816,4.4851,4.4875,4.4906,4.4944,4.4906,4.4908,4.4911,4.501,4.5007,4.5014,4.4953,4.4955,4.4956,4.5006,0,4.4291,4.4386,4.4424,4.45,4.4549,4.4579,4.4624,4.4672,4.4705,4.4751,4.4787,4.4838,4.484,4.4862,4.4894,4.4932,4.4964,4.4929,4.4993,4.4995,4.4978,4.5023,4.5019,4.5064,4.5013,4.5014,4.5015,0,4.4351,4.4405,4.4486,4.4554,4.4576,4.4615,4.4676,4.4719,4.4775,4.4797,4.4838,4.4861,4.4916,4.4906,4.4981,4.4957,4.4986,4.5009,4.5012,4.5018,4.5006,4.5031,4.5079,4.5086,4.5026,4.5025,4.5024,0,4.4355,4.4447,4.4508,4.4537,4.4617,4.4644,4.4678,4.4733,4.4768,4.482,4.4843,4.49,4.4931,4.4975,4.5013,4.5002,4.5085,4.5078,4.5104,4.5103,4.5119,4.5118,4.5173,4.5138,4.5138,4.5138,4.5138,0,4.4396,4.4445,4.4512,4.4549,4.4605,4.4649,4.4702,4.4738,4.4787,4.4832,4.4861,4.4902,4.495,4.4997,4.5027,4.5086,4.5099,4.5118,4.5125,4.5116,4.5113,4.5134,4.5132,4.514,4.514,4.5139,4.5139,0,4.4409,4.4456,4.4525,4.4596,4.4615,4.4653,4.4714,4.4751,4.4787,4.4843,4.4859,4.4914,4.4972,4.5015,4.5088,4.5108,4.5171,4.5178,4.5153,4.5156,4.518,4.5177,4.525,4.5262,4.522,4.522,4.522,0,4.4432,4.4471,4.4547,4.4581,4.4616,4.4668,4.4705,4.475,4.4787,4.4855,4.4884,4.4944,4.4994,4.5084,4.513,4.5187,4.5196,4.5218,4.5204,4.5194,4.5197,4.5194,4.5198,4.5219,4.5219,4.522,4.522,0,4.4469,4.4491,4.4544,4.4606,4.4649,4.47,4.475,4.4775,4.4829,4.4869,4.493,4.4969,4.5046,4.5105,4.5167,4.5201,4.5219,4.5224,4.5233,4.5223,4.5207,4.5216,4.5157,4.5222,4.5221,4.5221,4.5221,4.5221,4.4488,4.4524,4.4585,4.4643,4.4687,4.4734,4.4774,4.4816,4.4868,4.4935,4.4958,4.5021,4.5077,4.5162,4.5197,4.5246,4.5246,4.5259,4.5262,4.5265,4.5264,4.52,4.5258,4.5258,4.5258,4.5258,4.5258,0,4.4526,4.4567,4.4621,4.4692,4.4739,4.4755,4.4812,4.4849,4.4905,4.4956,4.5006,4.5076,4.5134,4.5186,4.5247,4.5276,4.5286,4.529,4.5288,4.5296,4.5261,4.5247,4.5281,4.5281,4.5281,4.5281,4.5281,4.5281,4.4551,4.4615,4.4644,4.473,4.477,4.4833,4.4865,4.4909,4.4951,4.5028,4.5078,4.5112,4.5164,4.5229,4.5283,4.5297,4.5318,4.532,4.5335,4.5301,4.5298,4.5295,4.5283,4.5324,4.5324,4.5367,4.5367,4.5368]}]]